Regional Weather Roundup
Issued by NWS Goodland, KS

Home | Current Version | Previous Version | Text Only | Print | Product List | Glossary On
Versions: 1 2 3 4 5 6 7 8 9 10 11 12 13 14 15 16 17 18 19 20 21 22 23 24 25 26 27 28 29 30 31 32 33 34 35 36 37 38 39 40 41 42 43 44 45 46 47 48 49 50
000
ASUS43 KGLD 231759
RWRGLD

GOODLAND FORECAST AREA HOURLY WEATHER ROUNDUP
NATIONAL WEATHER SERVICE GOODLAND KS
1200 PM MDT SUN APR 23 2017

...OFFICIAL OBSERVATIONS...

CITY           SKY/WX    TMP DP  RH WIND       PRES   REMARKS
GOODLAND KS    CLOUDY    61  39  44 S26G36    29.99F
HILL CITY KS   SUNNY     66  31  27 S21G28    30.08F
IMPERIAL NEB   CLOUDY    61  36  39 S23G31    29.97F
MCCOOK NEB     CLOUDY    66  35  31 S22G31    30.01F
AKRON CO       CLOUDY    63  38  39 S17G25    29.92F
BURLINGTON CO  NOT AVBL
LIMON CO       CLOUDY    58  36  43 S15G23    29.98F
$$

...UNOFFICIAL OBSERVATIONS...

CITY           SKY/WX    TMP DP  RH WIND       PRES   REMARKS
LENORA KS        N/A     62  32  32 MISG        N/A
NORTON KS      SUNNY     61  27  27 S17G25    30.05F
SHARON SPRINGS   N/A     61  42  49 S25G36      N/A
TRENTON NEB      N/A     63  32  31 S12         N/A
KIT CARSON CO    N/A     59  39  46 MISG        N/A
YUMA CO        FAIR      59  36  41 S23       29.94F
$$




USA.gov is the U.S. government's official web portal to all federal, state and local government web resources and services.